TimeEST,TemperatureF,Dew PointF,Humidity,Sea Level PressureIn,VisibilityMPH,Wind Direction,Wind SpeedMPH,Gust SpeedMPH,PrecipitationIn,Events,Conditions,WindDirDegrees,DateUTC
12:54 AM,59.0,55.0,87,29.99,10.0,WSW,9.2,-,N/A,,Clear,240,2013-02-12 05:54:00
1:54 AM,57.9,53.1,84,30.01,10.0,WSW,11.5,-,N/A,,Clear,240,2013-02-12 06:54:00
2:54 AM,57.0,53.1,87,29.99,10.0,WSW,8.1,-,N/A,,Clear,240,2013-02-12 07:54:00
3:54 AM,55.9,53.1,90,29.99,10.0,WSW,6.9,-,N/A,,Clear,250,2013-02-12 08:54:00
4:54 AM,54.0,52.0,93,30.01,10.0,WSW,5.8,-,N/A,,Clear,250,2013-02-12 09:54:00
5:54 AM,54.0,52.0,93,30.01,10.0,SW,4.6,-,N/A,,Clear,230,2013-02-12 10:54:00
6:54 AM,53.1,52.0,96,30.04,10.0,WSW,3.5,-,N/A,,Clear,240,2013-02-12 11:54:00
7:54 AM,51.1,51.1,100,30.03,10.0,Calm,Calm,-,N/A,,Clear,0,2013-02-12 12:54:00
8:54 AM,55.0,53.1,93,30.06,10.0,NW,5.8,-,N/A,,Clear,310,2013-02-12 13:54:00
9:54 AM,54.0,39.0,57,30.09,10.0,North,12.7,-,N/A,,Clear,360,2013-02-12 14:54:00
10:54 AM,55.0,37.0,51,30.12,10.0,North,5.8,-,N/A,,Clear,10,2013-02-12 15:54:00
11:54 AM,57.9,39.9,51,30.05,10.0,Calm,Calm,-,N/A,,Clear,0,2013-02-12 16:54:00
12:54 PM,61.0,39.0,44,30.05,10.0,NW,5.8,-,N/A,,Clear,320,2013-02-12 17:54:00
1:54 PM,63.0,37.0,38,30.00,10.0,Calm,Calm,-,N/A,,Clear,0,2013-02-12 18:54:00
2:54 PM,62.1,34.0,35,29.99,10.0,SSW,5.8,-,N/A,,Clear,210,2013-02-12 19:54:00
3:54 PM,61.0,37.9,42,29.98,10.0,Calm,Calm,-,N/A,,Clear,0,2013-02-12 20:54:00
4:54 PM,60.1,39.9,47,29.97,10.0,Calm,Calm,-,N/A,,Clear,0,2013-02-12 21:54:00
5:54 PM,57.0,44.1,62,29.98,10.0,Calm,Calm,-,N/A,,Scattered Clouds,0,2013-02-12 22:54:00
6:54 PM,55.0,46.0,72,29.99,10.0,Calm,Calm,-,N/A,,Overcast,0,2013-02-12 23:54:00
7:54 PM,55.0,44.1,67,29.96,10.0,South,3.5,-,N/A,,Mostly Cloudy,180,2013-02-13 00:54:00
8:54 PM,55.0,43.0,64,29.95,10.0,Calm,Calm,-,N/A,,Overcast,0,2013-02-13 01:54:00
9:54 PM,52.0,48.9,89,29.97,9.0,Calm,Calm,-,0.02,Rain,Light Rain,0,2013-02-13 02:54:00
10:54 PM,52.0,48.0,86,30.00,7.0,Calm,Calm,-,0.03,Rain,Light Rain,0,2013-02-13 03:54:00
11:54 PM,51.1,50.0,96,29.96,5.0,East,3.5,-,0.08,Rain,Light Rain,90,2013-02-13 04:54:00